When you browse on this site, cookies collect data to enhance your experience and personalize the content and advertising you see.
Visit our Privacy Policy to learn more. By continuing to use the site, you agree to this use of cookies and data.
  • en Belgique
  • Liste des pays
  • À 7 jours
  • Température de l'eau
  • Carte météo
  • Widgets météo
  • user-avatar
    Se connecter

    Météo par heure à Algérie

    Ce jour, 14 Octobre, Lundi

    Heure Température Précipitation Vent Pression Humidité
    00:00 +26°C° 0 mm 2 m/s 749 mmHg 52%
    01:00 +26°C° 0 mm 2 m/s 749 mmHg 51%
    02:00 +26°C° 0 mm 2 m/s 748 mmHg 50%
    03:00 +25°C° 0 mm 3 m/s 748 mmHg 48%
    04:00 +25°C° 0 mm 3 m/s 748 mmHg 48%
    05:00 +25°C° 0 mm 3 m/s 748 mmHg 48%
    06:00 +25°C° 0 mm 4 m/s 748 mmHg 48%
    07:00 +27°C° 0 mm 4 m/s 748 mmHg 45%
    08:00 +28°C° 0 mm 4 m/s 748 mmHg 41%
    09:00 +30°C° 0 mm 4 m/s 748 mmHg 37%
    10:00 +32°C° 0 mm 4 m/s 748 mmHg 35%
    11:00 +33°C° 0 mm 4 m/s 747 mmHg 33%
    12:00 +35°C° 0 mm 4 m/s 747 mmHg 30%
    13:00 +33°C° 0.1 mm 4 m/s 747 mmHg 36%
    14:00 +32°C° 0.1 mm 5 m/s 747 mmHg 41%
    15:00 +29°C° 0.1 mm 5 m/s 747 mmHg 47%
    16:00 +28°C° 0.3 mm 5 m/s 747 mmHg 54%
    17:00 +27°C° 0.3 mm 5 m/s 747 mmHg 60%
    18:00 +26°C° 0.3 mm 5 m/s 748 mmHg 67%
    19:00 +26°C° 0.1 mm 5 m/s 748 mmHg 68%
    20:00 +25°C° 0.1 mm 5 m/s 748 mmHg 68%
    21:00 +25°C° 0.1 mm 4 m/s 749 mmHg 68%
    22:00 +25°C° 0 mm 4 m/s 749 mmHg 68%
    23:00 +25°C° 0 mm 4 m/s 749 mmHg 68%

    Demain, 15 Octobre, Mardi

    Heure Température Précipitation Vent Pression Humidité
    00:00 +25°C° 0 mm 4 m/s 749 mmHg 68%
    01:00 +23°C° 0 mm 4 m/s 749 mmHg 67%
    02:00 +23°C° 0 mm 5 m/s 749 mmHg 66%
    03:00 +23°C° 0 mm 5 m/s 749 mmHg 65%
    04:00 +22°C° 0 mm 5 m/s 749 mmHg 65%
    05:00 +22°C° 0 mm 5 m/s 749 mmHg 65%
    06:00 +22°C° 0 mm 5 m/s 750 mmHg 66%
    07:00 +23°C° 0 mm 5 m/s 750 mmHg 62%
    08:00 +23°C° 0 mm 6 m/s 750 mmHg 57%
    09:00 +24°C° 0 mm 7 m/s 751 mmHg 53%
    10:00 +24°C° 0 mm 6 m/s 751 mmHg 53%
    11:00 +25°C° 0 mm 5 m/s 751 mmHg 53%
    12:00 +25°C° 0 mm 5 m/s 751 mmHg 53%
    13:00 +25°C° 0 mm 4 m/s 751 mmHg 55%
    14:00 +24°C° 0 mm 3 m/s 750 mmHg 58%
    15:00 +24°C° 0 mm 3 m/s 750 mmHg 60%
    16:00 +23°C° 0 mm 2 m/s 751 mmHg 62%
    17:00 +23°C° 0 mm 2 m/s 751 mmHg 64%
    18:00 +22°C° 0 mm 1 m/s 751 mmHg 66%
    19:00 +22°C° 0 mm 1 m/s 751 mmHg 67%
    20:00 +22°C° 0 mm 1 m/s 752 mmHg 68%
    21:00 +19°C° 0 mm 0 m/s 752 mmHg 69%
    22:00 +19°C° 0 mm 0 m/s 752 mmHg 70%
    23:00 +21°C° 0 mm 1 m/s 752 mmHg 71%

    Après-demain, 16 Octobre, Mercredi

    Heure Température Précipitation Vent Pression Humidité
    00:00 +21°C° 0 mm 1 m/s 752 mmHg 72%
    01:00 +21°C° 0 mm 1 m/s 751 mmHg 73%
    02:00 +21°C° 0 mm 1 m/s 751 mmHg 73%
    03:00 +20°C° 0 mm 1 m/s 751 mmHg 74%
    04:00 +20°C° 0 mm 1 m/s 751 mmHg 74%
    05:00 +20°C° 0 mm 1 m/s 751 mmHg 74%
    06:00 +20°C° 0 mm 1 m/s 751 mmHg 74%
    07:00 +21°C° 0 mm 1 m/s 751 mmHg 69%
    08:00 +22°C° 0 mm 1 m/s 751 mmHg 65%
    09:00 +23°C° 0 mm 1 m/s 751 mmHg 60%
    10:00 +24°C° 0 mm 2 m/s 751 mmHg 57%
    11:00 +25°C° 0 mm 2 m/s 751 mmHg 55%
    12:00 +25°C° 0 mm 3 m/s 751 mmHg 52%
    13:00 +25°C° 0 mm 3 m/s 751 mmHg 55%
    14:00 +25°C° 0 mm 3 m/s 750 mmHg 57%
    15:00 +24°C° 0 mm 3 m/s 750 mmHg 59%
    16:00 +24°C° 0 mm 3 m/s 750 mmHg 62%
    17:00 +22°C° 0 mm 3 m/s 750 mmHg 65%
    18:00 +21°C° 0 mm 3 m/s 750 mmHg 67%
    19:00 +21°C° 0 mm 2 m/s 750 mmHg 67%
    20:00 +21°C° 0 mm 2 m/s 750 mmHg 67%
    21:00 +21°C° 0 mm 2 m/s 751 mmHg 67%
    22:00 +22°C° 0 mm 1 m/s 751 mmHg 66%
    23:00 +22°C° 0 mm 1 m/s 750 mmHg 65%

    17 Octobre, Jeudi

    Heure Température Précipitation Vent Pression Humidité
    00:00 +22°C° 0 mm 1 m/s 750 mmHg 64%
    01:00 +20°C° 0 mm 0 m/s 750 mmHg 64%
    02:00 +20°C° 0 mm 0 m/s 750 mmHg 64%
    03:00 +20°C° 0 mm 0 m/s 750 mmHg 64%
    04:00 +19°C° 0 mm 0 m/s 750 mmHg 64%
    05:00 +19°C° 0 mm 0 m/s 750 mmHg 65%
    06:00 +19°C° 0 mm 0 m/s 750 mmHg 65%
    07:00 +20°C° 0 mm 0 m/s 750 mmHg 61%
    08:00 +22°C° 0 mm 0 m/s 750 mmHg 56%
    09:00 +25°C° 0 mm 1 m/s 750 mmHg 52%
    10:00 +25°C° 0 mm 1 m/s 750 mmHg 50%
    11:00 +26°C° 0 mm 2 m/s 750 mmHg 49%
    12:00 +27°C° 0 mm 2 m/s 750 mmHg 47%
    13:00 +26°C° 0 mm 3 m/s 749 mmHg 50%
    14:00 +26°C° 0 mm 3 m/s 749 mmHg 52%
    15:00 +26°C° 0 mm 3 m/s 749 mmHg 55%
    16:00 +25°C° 0 mm 3 m/s 749 mmHg 60%
    17:00 +24°C° 0 mm 3 m/s 749 mmHg 66%
    18:00 +22°C° 0 mm 3 m/s 749 mmHg 71%
    19:00 +23°C° 0.1 mm 2 m/s 749 mmHg 72%
    20:00 +23°C° 0.1 mm 2 m/s 750 mmHg 73%
    21:00 +23°C° 0.1 mm 2 m/s 750 mmHg 74%
    22:00 +23°C° 0.1 mm 1 m/s 750 mmHg 73%
    23:00 +23°C° 0.1 mm 1 m/s 750 mmHg 73%

    18 Octobre, Vendredi

    Heure Température Précipitation Vent Pression Humidité
    00:00 +23°C° 0.1 mm 1 m/s 750 mmHg 73%
    01:00 +22°C° 0 mm 1 m/s 750 mmHg 74%
    02:00 +22°C° 0 mm 1 m/s 749 mmHg 75%
    03:00 +22°C° 0 mm 1 m/s 749 mmHg 77%
    04:00 +22°C° 0 mm 1 m/s 749 mmHg 77%
    05:00 +22°C° 0 mm 1 m/s 749 mmHg 78%
    06:00 +21°C° 0 mm 1 m/s 750 mmHg 78%
    07:00 +22°C° 0 mm 1 m/s 750 mmHg 75%
    08:00 +23°C° 0 mm 1 m/s 750 mmHg 71%
    09:00 +24°C° 0 mm 1 m/s 750 mmHg 67%
    10:00 +25°C° 0 mm 1 m/s 750 mmHg 66%
    11:00 +25°C° 0 mm 1 m/s 750 mmHg 65%
    12:00 +26°C° 0 mm 2 m/s 750 mmHg 64%
    13:00 +26°C° 0 mm 2 m/s 750 mmHg 66%
    14:00 +25°C° 0 mm 2 m/s 749 mmHg 68%
    15:00 +25°C° 0 mm 3 m/s 749 mmHg 69%
    16:00 +25°C° 0.1 mm 2 m/s 749 mmHg 73%
    17:00 +24°C° 0.1 mm 2 m/s 749 mmHg 76%
    18:00 +23°C° 0.1 mm 2 m/s 749 mmHg 79%
    19:00 +23°C° 0 mm 1 m/s 749 mmHg 81%
    20:00 +23°C° 0 mm 1 m/s 749 mmHg 83%
    21:00 +23°C° 0 mm 1 m/s 750 mmHg 84%
    22:00 +22°C° 0 mm 1 m/s 750 mmHg 84%
    23:00 +22°C° 0 mm 1 m/s 749 mmHg 84%

    19 Octobre, Samedi

    Heure Température Précipitation Vent Pression Humidité
    00:00 +22°C° 0 mm 1 m/s 749 mmHg 84%
    01:00 +22°C° 0 mm 1 m/s 749 mmHg 83%
    02:00 +20°C° 0 mm 0 m/s 748 mmHg 82%
    03:00 +20°C° 0 mm 0 m/s 748 mmHg 81%
    04:00 +22°C° 0 mm 1 m/s 748 mmHg 81%
    05:00 +22°C° 0 mm 1 m/s 748 mmHg 80%
    06:00 +22°C° 0 mm 1 m/s 748 mmHg 80%
    07:00 +23°C° 0 mm 1 m/s 748 mmHg 73%
    08:00 +24°C° 0 mm 1 m/s 748 mmHg 67%
    09:00 +26°C° 0 mm 1 m/s 748 mmHg 61%
    10:00 +26°C° 0 mm 1 m/s 748 mmHg 59%
    11:00 +27°C° 0 mm 1 m/s 748 mmHg 56%
    12:00 +28°C° 0 mm 1 m/s 748 mmHg 54%
    13:00 +27°C° 0 mm 2 m/s 748 mmHg 56%
    14:00 +27°C° 0 mm 2 m/s 747 mmHg 58%
    15:00 +27°C° 0 mm 3 m/s 747 mmHg 59%
    16:00 +26°C° 0 mm 2 m/s 747 mmHg 63%
    17:00 +25°C° 0 mm 1 m/s 747 mmHg 67%
    18:00 +22°C° 0 mm 0 m/s 747 mmHg 71%
    19:00 +24°C° 0 mm 1 m/s 747 mmHg 72%
    20:00 +23°C° 0 mm 1 m/s 747 mmHg 73%
    21:00 +23°C° 0 mm 1 m/s 747 mmHg 74%
    22:00 +23°C° 0 mm 1 m/s 747 mmHg 74%
    23:00 +23°C° 0 mm 1 m/s 747 mmHg 74%
    Voir plus